| time (UTC) | temp F | wind direction | speed MPH | gust MPH | rain 1hr in | rain 24hr in | rain mn in | humidity % | barometer mb |
| 20260905024615 | 78 | 149 | 0.0 | 0.0 | 0.00 | 0.01 | 0.01 | 96 | 985.5 |
| 20260905023050 | 79 | 150 | 0.0 | 0.0 | 0.00 | 0.01 | 0.01 | 95 | 985.3 |
| 20260905021547 | 79 | 150 | 0.0 | 2.0 | 0.00 | 0.01 | 0.01 | 95 | 985.3 |
| 20260905020049 | 79 | 150 | 0.0 | 0.0 | 0.00 | 0.01 | 0.01 | 95 | 985.2 |
| 20260905014545 | 80 | 150 | 0.0 | 1.0 | 0.00 | 0.01 | 0.01 | 94 | 985.1 |
| 20260905013041 | 80 | 150 | 0.0 | 0.0 | 0.00 | 0.01 | 0.01 | 94 | 985.0 |
| 20260905011552 | 80 | 150 | 0.0 | 0.0 | 0.00 | 0.01 | 0.01 | 93 | 984.8 |
| 20260905010039 | 81 | 149 | 0.0 | 0.0 | 0.00 | 0.01 | 0.01 | 92 | 984.9 |
| 20260905004548 | 82 | 150 | 0.0 | 1.0 | 0.00 | 0.01 | 0.01 | 91 | 984.7 |
| 20260905003038 | 83 | 150 | 0.0 | 2.0 | 0.00 | 0.01 | 0.01 | 90 | 984.8 |
| 20260905001537 | 84 | 151 | 1.0 | 3.0 | 0.00 | 0.01 | 0.01 | 89 | 984.8 |
| 20260905000037 | 86 | 99 | 0.0 | 1.0 | 0.00 | 0.01 | 0.01 | 87 | 984.8 |
| 20260904234545 | 88 | 95 | 0.0 | 0.0 | 0.00 | 0.01 | 0.01 | 84 | 985.0 |
| 20260904233052 | 90 | 94 | 0.0 | 1.0 | 0.00 | 0.01 | 0.01 | 82 | 984.9 |
| 20260904231535 | 92 | 94 | 0.0 | 3.0 | 0.00 | 0.01 | 0.01 | 80 | 985.0 |
| 20260904230034 | 94 | 139 | 0.0 | 1.0 | 0.00 | 0.01 | 0.01 | 78 | 985.0 |
| 20260904224539 | 94 | 139 | 0.0 | 1.0 | 0.00 | 0.01 | 0.01 | 78 | 984.9 |
| 20260904223023 | 92 | 139 | 0.0 | 1.0 | 0.00 | 0.01 | 0.01 | 78 | 984.9 |
| 20260904221519 | 91 | 123 | 1.0 | 3.0 | 0.00 | 0.01 | 0.01 | 80 | 984.7 |
| 20260904220020 | 90 | 126 | 2.0 | 4.0 | 0.00 | 0.01 | 0.01 | 80 | 984.7 |
| 20260904214535 | 90 | 134 | 2.0 | 5.0 | 0.00 | 0.01 | 0.01 | 80 | 984.7 |
| 20260904213017 | 89 | 126 | 2.0 | 5.0 | 0.00 | 0.01 | 0.01 | 83 | 984.9 |
| 20260904211516 | 88 | 61 | 2.0 | 6.0 | 0.00 | 0.01 | 0.01 | 84 | 985.0 |
| 20260904210015 | 87 | 84 | 3.0 | 8.0 | 0.00 | 0.01 | 0.01 | 84 | 985.2 |
| 20260904204514 | 87 | 69 | 2.0 | 8.0 | 0.00 | 0.01 | 0.01 | 82 | 985.1 |
| 20260904203014 | 88 | 70 | 3.0 | 7.0 | 0.00 | 0.01 | 0.01 | 82 | 985.1 |
| 20260904201512 | 88 | 105 | 3.0 | 10.0 | 0.00 | 0.01 | 0.01 | 80 | 985.1 |
| 20260904200023 | 89 | 83 | 1.0 | 9.0 | 0.00 | 0.01 | 0.01 | 79 | 985.4 |
| 20260904194510 | 92 | 92 | 3.0 | 6.0 | 0.00 | 0.01 | 0.01 | 76 | 985.6 |
| 20260904193005 | 94 | 49 | 0.0 | 3.0 | 0.00 | 0.01 | 0.01 | 69 | 985.9 |
| 20260904191502 | 93 | 118 | 1.0 | 3.0 | 0.00 | 0.01 | 0.01 | 68 | 986.6 |
| 20260904190059 | 92 | 96 | 1.0 | 5.0 | 0.00 | 0.01 | 0.01 | 71 | 986.7 |
| 20260904184605 | 92 | 297 | 0.0 | 4.0 | 0.00 | 0.01 | 0.01 | 72 | 987.0 |
| 20260904183053 | 91 | 299 | 3.0 | 7.0 | 0.00 | 0.01 | 0.01 | 71 | 987.2 |
| 20260904181551 | 90 | 292 | 4.0 | 8.0 | 0.00 | 0.01 | 0.01 | 72 | 987.2 |
| 20260904174548 | 88 | 252 | 4.0 | 8.0 | 0.00 | 0.01 | 0.01 | 79 | 987.3 |
| 20260904173050 | 84 | 231 | 2.0 | 6.0 | 0.00 | 0.01 | 0.01 | 94 | 987.0 |
| 20260904171550 | 82 | 231 | 1.0 | 4.0 | 0.00 | 0.01 | 0.01 | 98 | 987.1 |
| 20260904170045 | 81 | 139 | 1.0 | 5.0 | 0.01 | 0.01 | 0.01 | 100 | 987.2 |
| 20260904164545 | 77 | 225 | 0.0 | 4.0 | 0.01 | 0.01 | 0.01 | 100 | 987.5 |
| 20260904163053 | 76 | 207 | 0.0 | 1.0 | 0.01 | 0.01 | 0.01 | 98 | 987.2 |
| 20260904161544 | 77 | 215 | 4.0 | 11.0 | 0.01 | 0.01 | 0.01 | 89 | 987.6 |
| 20260904160043 | 87 | 265 | 7.0 | 14.0 | 0.00 | 0.00 | 0.00 | 77 | 987.8 |
| 20260904154541 | 90 | 242 | 4.0 | 10.0 | 0.00 | 0.00 | 0.00 | 76 | 987.6 |
| 20260904153048 | 89 | 217 | 4.0 | 7.0 | 0.00 | 0.00 | 0.00 | 77 | 987.4 |
| 20260904151536 | 88 | 240 | 4.0 | 9.0 | 0.00 | 0.00 | 0.00 | 74 | 987.2 |
| 20260904150035 | 87 | 218 | 4.0 | 9.0 | 0.00 | 0.00 | 0.00 | 76 | 987.3 |
| 20260904144532 | 87 | 235 | 3.0 | 9.0 | 0.00 | 0.00 | 0.00 | 79 | 987.5 |
| 20260904143029 | 86 | 280 | 2.0 | 9.0 | 0.00 | 0.00 | 0.00 | 78 | 987.4 |
| 20260904141526 | 86 | 199 | 3.0 | 9.0 | 0.00 | 0.00 | 0.00 | 81 | 987.3 |
| 20260904140023 | 84 | 250 | 2.0 | 6.0 | 0.00 | 0.00 | 0.00 | 82 | 987.5 |
| 20260904134523 | 83 | 248 | 4.0 | 9.0 | 0.00 | 0.00 | 0.00 | 81 | 987.4 |
| 20260904133017 | 82 | 237 | 3.0 | 6.0 | 0.00 | 0.00 | 0.00 | 83 | 987.4 |
| 20260904131514 | 82 | 237 | 2.0 | 5.0 | 0.00 | 0.00 | 0.00 | 84 | 987.2 |
| 20260904130012 | 82 | 236 | 1.0 | 3.0 | 0.00 | 0.00 | 0.00 | 85 | 987.2 |
| 20260904124509 | 80 | 241 | 0.0 | 2.0 | 0.00 | 0.00 | 0.00 | 88 | 987.2 |
| 20260904123005 | 78 | 241 | 0.0 | 0.0 | 0.00 | 0.00 | 0.00 | 91 | 987.1 |
| 20260904121600 | 76 | 241 | 0.0 | 0.0 | 0.00 | 0.00 | 0.00 | 94 | 987.0 |
| 20260904120100 | 74 | 241 | 0.0 | 0.0 | 0.00 | 0.00 | 0.00 | 96 | 986.9 |
| 20260904114553 | 0 | 0.0 | 0.0 | 0.00 | 0.00 | 0.00 | 986.7 | ||
| 20260904113049 | 0 | 0.0 | 0.0 | 0.00 | 0.00 | 0.00 | 986.4 | ||
| 20260904111553 | 0 | 0.0 | 0.0 | 0.00 | 0.00 | 0.00 | 986.2 | ||
| 20260904110042 | 0 | 0.0 | 0.0 | 0.00 | 0.00 | 0.00 | 985.7 | ||
| 20260904104538 | 0 | 120 | 0.0 | 0.0 | 0.00 | 0.00 | 0.00 | 985.8 | |
| 20260904103036 | 72 | 115 | 0.0 | 0.0 | 0.00 | 0.00 | 0.00 | 97 | 985.8 |
| 20260904101531 | 72 | 115 | 0.0 | 0.0 | 0.00 | 0.00 | 0.00 | 96 | 985.8 |
| 20260904100029 | 73 | 115 | 0.0 | 0.0 | 0.00 | 0.00 | 0.00 | 96 | 985.9 |
| 20260904094530 | 73 | 115 | 0.0 | 0.0 | 0.00 | 0.00 | 0.00 | 95 | 986.0 |
| 20260904093027 | 74 | 115 | 0.0 | 0.0 | 0.00 | 0.00 | 0.00 | 94 | 985.7 |
| 20260904091532 | 74 | 115 | 0.0 | 0.0 | 0.00 | 0.00 | 0.00 | 94 | 985.8 |
| 20260904090026 | 74 | 115 | 0.0 | 0.0 | 0.00 | 0.00 | 0.00 | 94 | 985.6 |
| 20260904084526 | 75 | 115 | 0.0 | 0.0 | 0.00 | 0.00 | 0.00 | 94 | 985.5 |
| 20260904083025 | 75 | 115 | 0.0 | 2.0 | 0.00 | 0.00 | 0.00 | 95 | 985.5 |
| 20260904081525 | 75 | 139 | 0.0 | 0.0 | 0.00 | 0.00 | 0.00 | 95 | 985.5 |
| 20260904080021 | 75 | 155 | 2.0 | 5.0 | 0.00 | 0.00 | 0.00 | 96 | 985.5 |
| 20260904074522 | 74 | 142 | 1.0 | 4.0 | 0.00 | 0.00 | 0.00 | 96 | 985.8 |
| 20260904073016 | 74 | 165 | 0.0 | 2.0 | 0.00 | 0.00 | 0.00 | 96 | 985.9 |
| 20260904071527 | 74 | 148 | 1.0 | 2.0 | 0.00 | 0.00 | 0.00 | 97 | 986.0 |
| 20260904070005 | 74 | 146 | 0.0 | 0.0 | 0.00 | 0.00 | 0.00 | 97 | 986.4 |
| 20260904064600 | 74 | 146 | 0.0 | 0.0 | 0.00 | 0.00 | 0.00 | 97 | 986.5 |
| 20260904063108 | 74 | 146 | 0.0 | 0.0 | 0.00 | 0.00 | 0.00 | 97 | 986.5 |
| 20260904061559 | 74 | 146 | 0.0 | 0.0 | 0.00 | 0.00 | 0.00 | 96 | 986.6 |
| 20260904060107 | 74 | 146 | 0.0 | 0.0 | 0.00 | 0.00 | 0.00 | 97 | 986.7 |
| 20260904054543 | 74 | 146 | 0.0 | 0.0 | 0.00 | 0.00 | 0.00 | 97 | 986.7 |
| 20260904053040 | 74 | 146 | 0.0 | 0.0 | 0.00 | 0.00 | 0.00 | 97 | 986.7 |
| 20260904051535 | 74 | 120 | 0.0 | 1.0 | 0.00 | 0.00 | 0.00 | 97 | 987.1 |
| 20260904050032 | 74 | 120 | 0.0 | 1.0 | 0.00 | 0.00 | 0.00 | 98 | 987.1 |
| 20260904044539 | 73 | 120 | 0.0 | 0.0 | 0.00 | 0.00 | 0.00 | 98 | 987.0 |
| 20260904043024 | 73 | 102 | 0.0 | 0.0 | 0.00 | 0.00 | 0.00 | 97 | 987.0 |
| 20260904041521 | 73 | 102 | 0.0 | 0.0 | 0.00 | 0.00 | 0.00 | 97 | 986.9 |
| 20260904040017 | 74 | 102 | 0.0 | 0.0 | 0.00 | 0.00 | 0.00 | 97 | 986.7 |
| 20260904034517 | 73 | 102 | 0.0 | 2.0 | 0.00 | 0.00 | 0.00 | 97 | 986.6 |
| 20260904033015 | 74 | 132 | 0.0 | 0.0 | 0.00 | 0.00 | 0.00 | 96 | 986.6 |
| 20260904031515 | 74 | 132 | 0.0 | 1.0 | 0.00 | 0.00 | 0.00 | 95 | 986.7 |
| 20260904030014 | 75 | 132 | 0.0 | 1.0 | 0.00 | 0.00 | 0.00 | 95 | 986.8 |